| DS18B20 | SHTC3 | ||||||
|---|---|---|---|---|---|---|---|
| ID | Date d/m/Y & Time | data1 สูง | data2 ต่ำ | data3 นอก | temp pcb | hum pcb | Time |
| 10122 | 09/04/2026 02:50:05 | 29.2  | 29.4  | 27.0  | 29.4  | 69.9  | 02:50 |
| 10121 | 09/04/2026 02:45:23 | 29.3  | 29.4  | 27.2  | 29.2  | 69.9  | 02:45 |
| 10120 | 09/04/2026 02:40:42 | 29.3  | 29.4  | 27.2  | 29.2  | 69.8  | 02:40 |
| 10119 | 09/04/2026 02:36:00 | 29.3  | 29.4  | 27.1  | 29.2  | 69.8  | 02:36 |
| 10118 | 09/04/2026 02:31:18 | 29.4  | 29.5  | 27.0  | 29.4  | 70.0  | 02:31 |
| 10117 | 09/04/2026 02:26:36 | 29.3  | 29.5  | 27.0  | 29.4  | 69.9  | 02:26 |
| 10116 | 09/04/2026 02:21:54 | 29.4  | 29.5  | 27.2  | 29.4  | 69.8  | 02:21 |
| 10115 | 09/04/2026 02:17:11 | 29.4  | 29.6  | 27.1  | 29.2  | 69.7  | 02:17 |
| 10114 | 09/04/2026 02:12:29 | 29.4  | 29.6  | 27.0  | 29.2  | 69.8  | 02:12 |
| 10113 | 09/04/2026 02:07:45 | 29.5  | 29.6  | 27.0  | 29.4  | 69.7  | 02:07 |
| 10112 | 09/04/2026 02:03:03 | 29.5  | 29.6  | 27.0  | 29.4  | 69.7  | 02:03 |
| 10111 | 09/04/2026 01:58:22 | 29.5  | 29.7  | 27.2  | 29.4  | 69.8  | 01:58 |
| 10110 | 09/04/2026 01:53:40 | 29.5  | 29.7  | 27.2  | 29.7  | 69.8  | 01:53 |
| 10109 | 09/04/2026 01:48:58 | 29.6  | 29.7  | 27.4  | 29.5  | 69.8  | 01:48 |
| 10108 | 09/04/2026 01:44:17 | 29.6  | 29.8  | 27.6  | 29.6  | 69.8  | 01:44 |
| 10107 | 09/04/2026 01:39:33 | 29.7  | 29.8  | 27.5  | 29.7  | 69.8  | 01:39 |
| 10106 | 09/04/2026 01:34:52 | 29.6  | 29.8  | 27.4  | 29.6  | 69.7  | 01:34 |
| 10105 | 09/04/2026 01:30:10 | 29.6  | 29.8  | 27.6  | 29.7  | 69.7  | 01:30 |
| 10104 | 09/04/2026 01:25:28 | 29.7  | 29.8  | 27.5  | 29.6  | 69.5  | 01:25 |
| 10103 | 09/04/2026 01:20:46 | 29.8  | 29.9  | 27.7  | 29.8  | 69.8  | 01:20 |
| 10102 | 09/04/2026 01:16:05 | 29.8  | 29.9  | 27.8  | 29.7  | 69.6  | 01:16 |
| 10101 | 09/04/2026 01:11:23 | 29.8  | 29.9  | 27.7  | 29.8  | 69.6  | 01:11 |
| 10100 | 09/04/2026 01:06:39 | 29.8  | 29.9  | 27.6  | 29.9  | 69.6  | 01:06 |
| 10099 | 09/04/2026 01:01:57 | 29.9  | 29.9  | 27.5  | 29.9  | 69.5  | 01:01 |